TimeEDT,TemperatureF,Dew PointF,Humidity,Sea Level PressureIn,VisibilityMPH,Wind Direction,Wind SpeedMPH,Gust SpeedMPH,PrecipitationIn,Events,Conditions,WindDirDegrees,DateUTC
12:58 AM,61.9,61.7,99,30.06,10.0,SE,1.2,-,N/A,,Clear,140,2013-08-01 04:58:00
1:58 AM,60.4,60.1,99,30.05,10.0,Calm,Calm,-,N/A,,Clear,0,2013-08-01 05:58:00
2:53 AM,59.0,59.0,100,30.01,2.5,NE,2.3,-,N/A,,Clear,40,2013-08-01 06:53:00
2:54 AM,59.0,59.0,100,30.01,2.0,NE,2.3,-,N/A,,Clear,40,2013-08-01 06:54:00
2:58 AM,59.2,58.8,99,30.03,2.0,NE,2.3,-,N/A,,Clear,50,2013-08-01 06:58:00
3:01 AM,59.0,59.0,100,30.01,2.5,NE,3.5,-,N/A,,Clear,40,2013-08-01 07:01:00
3:02 AM,59.0,59.0,100,30.01,3.0,NE,3.5,-,N/A,,Clear,40,2013-08-01 07:02:00
3:32 AM,57.2,57.2,100,30.00,2.5,NE,3.5,-,N/A,,Clear,40,2013-08-01 07:32:00
3:33 AM,57.2,57.2,100,30.00,2.0,NE,3.5,-,N/A,,Clear,50,2013-08-01 07:33:00
3:34 AM,57.2,57.2,100,30.00,1.5,NE,3.5,-,N/A,,Clear,50,2013-08-01 07:34:00
3:35 AM,57.2,57.2,100,30.00,1.5,NE,3.5,-,N/A,,Clear,50,2013-08-01 07:35:00
3:36 AM,57.2,57.2,100,30.00,1.2,NE,3.5,-,N/A,,Clear,50,2013-08-01 07:36:00
3:37 AM,57.2,57.2,100,30.00,1.0,NE,3.5,-,N/A,,Clear,40,2013-08-01 07:37:00
3:38 AM,57.2,57.2,100,30.00,1.0,NE,3.5,-,N/A,,Clear,40,2013-08-01 07:38:00
3:39 AM,57.2,57.2,100,30.00,0.8,NE,3.5,-,N/A,,Clear,40,2013-08-01 07:39:00
3:52 AM,57.2,57.2,100,30.00,0.5,NE,3.5,-,N/A,Fog,Fog,40,2013-08-01 07:52:00
3:58 AM,57.6,57.2,99,30.02,0.5,NE,2.3,-,N/A,Fog,Fog,50,2013-08-01 07:58:00
3:59 AM,57.2,57.2,100,30.00,0.8,NE,2.3,-,N/A,,Clear,50,2013-08-01 07:59:00
4:02 AM,59.0,57.2,94,30.00,1.0,NE,2.3,-,N/A,,Clear,50,2013-08-01 08:02:00
4:05 AM,59.0,59.0,100,30.00,1.0,NE,2.3,-,N/A,,Clear,50,2013-08-01 08:05:00
4:06 AM,59.0,59.0,100,30.00,1.2,NE,2.3,-,N/A,,Clear,50,2013-08-01 08:06:00
4:07 AM,59.0,59.0,100,30.00,1.0,NE,3.5,-,N/A,,Clear,50,2013-08-01 08:07:00
4:11 AM,59.0,59.0,100,30.00,1.2,ENE,2.3,-,N/A,,Clear,70,2013-08-01 08:11:00
4:13 AM,59.0,59.0,100,30.00,1.2,Calm,Calm,-,N/A,,Clear,0,2013-08-01 08:13:00
4:14 AM,59.0,59.0,100,30.00,1.5,Calm,Calm,-,N/A,,Clear,0,2013-08-01 08:14:00
4:15 AM,59.0,59.0,100,30.00,1.5,Calm,Calm,-,N/A,,Clear,0,2013-08-01 08:15:00
4:16 AM,59.0,59.0,100,30.00,1.8,Calm,Calm,-,N/A,,Clear,0,2013-08-01 08:16:00
4:17 AM,59.0,59.0,100,30.00,2.5,Calm,Calm,-,N/A,,Clear,0,2013-08-01 08:17:00
4:18 AM,59.0,59.0,100,30.00,5.0,Calm,Calm,-,N/A,,Clear,0,2013-08-01 08:18:00
4:58 AM,57.6,57.4,99,30.02,10.0,Calm,Calm,-,N/A,,Clear,0,2013-08-01 08:58:00
5:06 AM,57.2,57.2,100,30.00,2.0,NNE,1.2,-,N/A,,Clear,30,2013-08-01 09:06:00
5:07 AM,57.2,57.2,100,30.00,1.5,NNE,1.2,-,N/A,,Clear,30,2013-08-01 09:07:00
5:08 AM,57.2,57.2,100,30.00,1.2,NNE,1.2,-,N/A,,Clear,30,2013-08-01 09:08:00
5:09 AM,57.2,57.2,100,30.00,1.0,NNE,2.3,-,N/A,,Clear,30,2013-08-01 09:09:00
5:10 AM,57.2,57.2,100,30.00,0.8,NNE,2.3,-,N/A,,Clear,30,2013-08-01 09:10:00
5:11 AM,57.2,57.2,100,30.00,0.8,NNE,2.3,-,N/A,,Clear,30,2013-08-01 09:11:00
5:12 AM,57.2,57.2,100,30.00,0.5,NNE,2.3,-,N/A,Fog,Fog,20,2013-08-01 09:12:00
5:18 AM,57.2,57.2,100,30.00,0.8,North,2.3,-,N/A,,Clear,10,2013-08-01 09:18:00
5:19 AM,57.2,57.2,100,30.00,0.8,North,2.3,-,N/A,,Clear,10,2013-08-01 09:19:00
5:20 AM,57.2,57.2,100,30.00,1.0,North,2.3,-,N/A,,Clear,10,2013-08-01 09:20:00
5:21 AM,57.2,57.2,100,30.00,1.2,North,2.3,-,N/A,,Clear,10,2013-08-01 09:21:00
5:22 AM,57.2,57.2,100,30.00,1.5,North,2.3,-,N/A,,Clear,10,2013-08-01 09:22:00
5:23 AM,57.2,57.2,100,29.99,1.8,North,2.3,-,N/A,,Clear,10,2013-08-01 09:23:00
5:24 AM,57.2,57.2,100,29.99,2.5,North,2.3,-,N/A,,Clear,10,2013-08-01 09:24:00
5:25 AM,57.2,57.2,100,29.99,4.0,North,2.3,-,N/A,,Clear,10,2013-08-01 09:25:00
5:28 AM,57.2,55.4,94,29.99,2.5,North,2.3,-,N/A,,Clear,10,2013-08-01 09:28:00
5:29 AM,57.2,55.4,94,30.00,2.0,North,2.3,-,N/A,,Clear,10,2013-08-01 09:29:00
5:31 AM,57.2,55.4,94,30.00,1.8,North,2.3,-,N/A,,Clear,10,2013-08-01 09:31:00
5:33 AM,55.4,55.4,100,30.00,1.5,North,2.3,-,N/A,,Clear,10,2013-08-01 09:33:00
5:36 AM,57.2,55.4,94,30.00,1.8,North,2.3,-,N/A,,Clear,10,2013-08-01 09:36:00
5:38 AM,57.2,55.4,94,30.00,2.0,NNE,1.2,-,N/A,,Clear,30,2013-08-01 09:38:00
5:39 AM,57.2,57.2,100,30.00,1.2,NNE,1.2,-,N/A,,Clear,30,2013-08-01 09:39:00
5:40 AM,57.2,57.2,100,30.00,1.0,NNE,1.2,-,N/A,,Clear,30,2013-08-01 09:40:00
5:41 AM,57.2,57.2,100,30.00,0.8,NNE,1.2,-,N/A,,Clear,30,2013-08-01 09:41:00
5:42 AM,57.2,57.2,100,30.00,0.5,NNE,2.3,-,N/A,Fog,Fog,30,2013-08-01 09:42:00
5:47 AM,57.2,57.2,100,30.00,0.2,NE,2.3,-,N/A,Fog,Fog,40,2013-08-01 09:47:00
5:50 AM,57.2,57.2,100,30.00,0.5,NE,2.3,-,N/A,Fog,Fog,40,2013-08-01 09:50:00
5:52 AM,57.2,57.2,100,29.99,0.5,NE,2.3,-,N/A,Fog,Fog,40,2013-08-01 09:52:00
5:55 AM,57.2,57.2,100,29.99,0.5,NE,2.3,-,N/A,Fog,Fog,40,2013-08-01 09:55:00
5:57 AM,57.2,57.2,100,29.99,0.5,NE,2.3,-,N/A,Fog,Fog,40,2013-08-01 09:57:00
5:58 AM,57.2,57.2,100,30.01,0.8,NE,2.3,-,N/A,,Clear,40,2013-08-01 09:58:00
6:01 AM,57.2,57.2,100,29.99,0.8,NE,3.5,-,N/A,,Clear,40,2013-08-01 10:01:00
6:03 AM,57.2,57.2,100,29.99,0.8,NE,3.5,-,N/A,,Clear,40,2013-08-01 10:03:00
6:07 AM,55.4,55.4,100,30.00,0.5,NNE,3.5,-,N/A,Fog,Fog,30,2013-08-01 10:07:00
6:08 AM,55.4,55.4,100,30.00,0.5,NNE,3.5,-,N/A,Fog,Fog,20,2013-08-01 10:08:00
6:14 AM,55.4,55.4,100,30.00,0.5,North,2.3,-,N/A,Fog,Fog,360,2013-08-01 10:14:00
6:15 AM,55.4,55.4,100,30.00,0.5,North,2.3,-,N/A,Fog,Fog,360,2013-08-01 10:15:00
6:18 AM,55.4,55.4,100,30.00,0.8,North,2.3,-,N/A,,Clear,10,2013-08-01 10:18:00
6:19 AM,55.4,55.4,100,30.00,1.2,NNE,2.3,-,N/A,,Clear,20,2013-08-01 10:19:00
6:20 AM,55.4,55.4,100,30.00,2.5,NNE,2.3,-,N/A,,Clear,20,2013-08-01 10:20:00
6:21 AM,55.4,55.4,100,30.00,4.0,NNE,2.3,-,N/A,,Clear,20,2013-08-01 10:21:00
6:58 AM,59.7,59.5,99,30.02,10.0,Calm,Calm,-,N/A,,Clear,0,2013-08-01 10:58:00
7:58 AM,64.0,63.7,99,30.02,10.0,Calm,Calm,-,N/A,,Clear,0,2013-08-01 11:58:00
8:58 AM,69.1,64.6,86,30.01,10.0,Variable,2.3,-,N/A,,Clear,0,2013-08-01 12:58:00
9:58 AM,74.1,66.0,76,29.99,10.0,SSW,3.5,-,N/A,,Partly Cloudy,210,2013-08-01 13:58:00
10:58 AM,77.0,66.7,70,29.97,10.0,South,9.2,-,N/A,,Mostly Cloudy,170,2013-08-01 14:58:00
11:58 AM,76.1,65.8,70,29.95,10.0,South,9.2,-,N/A,,Mostly Cloudy,190,2013-08-01 15:58:00
12:24 PM,77.0,68.0,74,29.92,10.0,South,13.8,20.7,N/A,Rain,Light Rain,180,2013-08-01 16:24:00
12:25 PM,77.0,66.2,69,29.92,10.0,South,15.0,20.7,N/A,Rain,Light Rain,180,2013-08-01 16:25:00
12:27 PM,75.2,66.2,73,29.93,10.0,South,17.3,20.7,N/A,Rain,Light Rain,190,2013-08-01 16:27:00
12:33 PM,77.0,66.2,69,29.92,10.0,South,16.1,20.7,N/A,,Mostly Cloudy,180,2013-08-01 16:33:00
12:58 PM,75.7,64.9,69,29.94,10.0,South,10.4,-,0.00,,Mostly Cloudy,180,2013-08-01 16:58:00
1:21 PM,77.0,64.4,65,29.91,10.0,South,13.8,-,N/A,Rain,Light Rain,190,2013-08-01 17:21:00
1:58 PM,71.4,66.7,85,29.94,8.0,SSW,9.2,-,0.00,Rain,Light Rain,200,2013-08-01 17:58:00
2:32 PM,69.8,68.0,94,29.92,10.0,SSW,10.4,-,N/A,Rain,Light Rain,200,2013-08-01 18:32:00
2:45 PM,69.8,68.0,94,29.92,10.0,South,9.2,-,N/A,Rain,Light Rain,190,2013-08-01 18:45:00
2:58 PM,69.6,68.7,97,29.95,10.0,SSW,8.1,-,0.02,Rain,Light Rain,200,2013-08-01 18:58:00
3:03 PM,69.8,68.0,94,29.92,10.0,SSW,9.2,-,N/A,,Overcast,200,2013-08-01 19:03:00
3:29 PM,69.8,68.0,94,29.92,10.0,SSW,6.9,-,N/A,,Overcast,210,2013-08-01 19:29:00
3:33 PM,69.8,68.0,94,29.92,10.0,South,5.8,-,N/A,,Overcast,190,2013-08-01 19:33:00
3:58 PM,70.2,68.9,96,29.94,10.0,South,8.1,-,0.00,,Overcast,180,2013-08-01 19:58:00
4:08 PM,69.8,66.2,88,29.92,10.0,South,12.7,-,N/A,Rain,Light Rain,190,2013-08-01 20:08:00
4:17 PM,69.8,66.2,88,29.92,9.0,South,11.5,-,N/A,Rain,Light Rain,190,2013-08-01 20:17:00
4:19 PM,69.8,66.2,88,29.92,8.0,South,9.2,-,N/A,Rain,Light Rain,190,2013-08-01 20:19:00
4:34 PM,68.0,68.0,100,29.92,8.0,SSW,13.8,21.9,N/A,Rain,Light Rain,200,2013-08-01 20:34:00
4:58 PM,68.4,67.8,98,29.93,10.0,SSW,13.8,-,0.03,Rain,Light Rain,200,2013-08-01 20:58:00
5:07 PM,68.0,66.2,94,29.91,10.0,South,11.5,-,N/A,,Mostly Cloudy,190,2013-08-01 21:07:00
5:25 PM,68.0,66.2,94,29.90,10.0,South,9.2,-,N/A,Rain,Light Rain,190,2013-08-01 21:25:00
5:40 PM,68.0,66.2,94,29.90,10.0,SSW,6.9,-,N/A,Rain,Light Rain,200,2013-08-01 21:40:00
5:46 PM,68.0,66.2,94,29.90,10.0,SSW,5.8,-,N/A,Rain,Light Rain,210,2013-08-01 21:46:00
5:58 PM,67.6,66.4,96,29.92,10.0,SSW,5.8,-,0.01,Rain,Light Rain,200,2013-08-01 21:58:00
6:07 PM,68.0,66.2,94,29.90,10.0,SSW,8.1,-,N/A,,Overcast,200,2013-08-01 22:07:00
6:09 PM,68.0,66.2,94,29.90,10.0,South,9.2,-,N/A,,Light Drizzle,190,2013-08-01 22:09:00
6:15 PM,68.0,66.2,94,29.90,10.0,South,9.2,-,N/A,Rain,Light Rain,190,2013-08-01 22:15:00
6:22 PM,68.0,66.2,94,29.90,10.0,South,8.1,-,N/A,Rain,Light Rain,180,2013-08-01 22:22:00
6:28 PM,68.0,66.2,94,29.90,10.0,South,5.8,-,N/A,,Overcast,190,2013-08-01 22:28:00
6:29 PM,68.0,66.2,94,29.90,10.0,South,6.9,-,N/A,,Overcast,180,2013-08-01 22:29:00
6:53 PM,68.0,66.2,94,29.90,10.0,South,4.6,-,N/A,,Overcast,190,2013-08-01 22:53:00
6:58 PM,67.5,66.9,98,29.92,10.0,SSW,5.8,-,0.00,,Overcast,200,2013-08-01 22:58:00
7:06 PM,68.0,66.2,94,29.91,7.0,SSW,5.8,-,N/A,Rain,Light Rain,210,2013-08-01 23:06:00
7:13 PM,66.2,66.2,100,29.90,2.5,South,5.8,-,N/A,Rain,Light Rain,170,2013-08-01 23:13:00
7:14 PM,66.2,66.2,100,29.90,2.5,SSE,5.8,-,N/A,Rain,Light Rain,160,2013-08-01 23:14:00
7:17 PM,66.2,66.2,100,29.90,2.5,SSE,6.9,-,N/A,Rain,Light Rain,160,2013-08-01 23:17:00
7:18 PM,66.2,66.2,100,29.90,3.0,SSE,5.8,-,N/A,Rain,Light Rain,150,2013-08-01 23:18:00
7:30 PM,66.2,66.2,100,29.90,10.0,South,8.1,-,N/A,,Overcast,170,2013-08-01 23:30:00
7:58 PM,66.4,65.8,98,29.91,10.0,Variable,3.5,-,0.02,,Overcast,0,2013-08-01 23:58:00
8:58 PM,66.4,66.2,99,29.91,10.0,South,4.6,-,N/A,,Overcast,170,2013-08-02 00:58:00
9:26 PM,66.2,66.2,100,29.89,10.0,South,9.2,-,N/A,,Light Drizzle,180,2013-08-02 01:26:00
9:36 PM,66.2,66.2,100,29.89,10.0,South,10.4,-,N/A,,Overcast,180,2013-08-02 01:36:00
9:38 PM,66.2,66.2,100,29.89,10.0,South,10.4,-,N/A,,Overcast,170,2013-08-02 01:38:00
9:40 PM,66.2,66.2,100,29.89,10.0,South,10.4,-,N/A,,Overcast,170,2013-08-02 01:40:00
9:45 PM,66.2,66.2,100,29.89,10.0,SSE,11.5,-,N/A,Rain,Light Rain,160,2013-08-02 01:45:00
9:53 PM,66.2,66.2,100,29.89,10.0,South,8.1,-,N/A,,Light Drizzle,170,2013-08-02 01:53:00
9:55 PM,66.2,66.2,100,29.88,10.0,South,10.4,-,N/A,,Mostly Cloudy,170,2013-08-02 01:55:00
9:56 PM,66.2,66.2,100,29.89,10.0,South,10.4,-,N/A,,Mostly Cloudy,170,2013-08-02 01:56:00
9:58 PM,66.2,66.2,100,29.91,10.0,SSE,10.4,-,0.00,,Mostly Cloudy,160,2013-08-02 01:58:00
10:03 PM,66.2,66.2,100,29.88,10.0,SSE,11.5,-,N/A,,Mostly Cloudy,160,2013-08-02 02:03:00
10:09 PM,66.2,66.2,100,29.88,10.0,SSE,9.2,-,N/A,,Overcast,160,2013-08-02 02:09:00
10:14 PM,66.2,66.2,100,29.88,10.0,SSE,8.1,-,N/A,,Overcast,160,2013-08-02 02:14:00
10:25 PM,66.2,64.4,94,29.88,10.0,SSE,8.1,-,N/A,,Overcast,160,2013-08-02 02:25:00
10:26 PM,66.2,64.4,94,29.88,10.0,SSE,6.9,-,N/A,,Overcast,160,2013-08-02 02:26:00
10:27 PM,66.2,64.4,94,29.88,10.0,SSE,6.9,-,N/A,,Overcast,160,2013-08-02 02:27:00
10:28 PM,66.2,64.4,94,29.88,10.0,Variable,5.8,-,N/A,,Overcast,0,2013-08-02 02:28:00
10:29 PM,66.2,64.4,94,29.88,10.0,SSE,8.1,-,N/A,Rain,Light Rain,160,2013-08-02 02:29:00
10:30 PM,66.2,64.4,94,29.88,10.0,SSE,8.1,-,N/A,Rain,Light Rain,160,2013-08-02 02:30:00
10:38 PM,64.4,64.4,100,29.88,8.0,SSE,5.8,-,N/A,Rain,Light Rain,150,2013-08-02 02:38:00
10:50 PM,64.4,64.4,100,29.87,9.0,SSE,5.8,-,N/A,,Light Drizzle,150,2013-08-02 02:50:00
10:55 PM,64.4,64.4,100,29.87,5.0,SSE,6.9,-,N/A,Rain,Light Rain,160,2013-08-02 02:55:00
10:58 PM,64.9,64.6,99,29.89,4.0,SSE,6.9,-,0.02,Rain,Rain,160,2013-08-02 02:58:00
11:00 PM,64.4,64.4,100,29.87,3.0,SSE,8.1,-,N/A,Rain,Rain,160,2013-08-02 03:00:00
11:40 PM,64.4,64.4,100,29.86,5.0,South,5.8,-,N/A,Rain,Light Rain,170,2013-08-02 03:40:00
11:58 PM,64.9,64.6,99,29.88,4.0,SSE,5.8,-,0.10,Rain,Rain,150,2013-08-02 03:58:00